Location: Unspecified
(0.0000°N, 0.0000°E)
Time: 17:22:18
(UTC+00:00)

STARLINK 1022 - Pass Details

Date: 22 January 2020
Orbit: 549 x 551 km, 53.0° (Epoch: 23 January)

Event Time Altitude Azimuth Distance (km) Brightness Sun altitude
Rises 04:40:03 0° 209° (SSW) 2,719 7.1 -21.4°
Reaches altitude 10° 04:42:18 10° 206° (SSW) 1,823 6.2 -20.9°
Maximum altitude 04:46:25 66° 124° (SE) 600 3.9 -19.9°
Drops below altitude 10° 04:50:30 10° 41° (NE) 1,812 6.5 -19.0°
Sets 04:52:44 0° 39° (NE) 2,701 7.4 -18.5°
